Location: Korczew
(51.3586°N, 19.4491°E)
Time: 21:47:35
(UTC+00:00)

BlueWalker 3 - Pass Details

Date: 19 May 2025
Orbit: 460 x 472 km, 53.2° (Epoch: 16 June)

Event Time Altitude Azimuth Distance (km) Brightness Sun altitude
Rises 21:05:42 0° 286° (WNW) 2,497 6.1 -15.8°
Reaches altitude 10° 21:08:15 10° 269° (W) 1,620 4.8 -16.0°
Maximum altitude 21:10:56 19° 222° (SW) 1,152 3.5 -16.1°
Enters shadow 21:11:11 19° 215° (SW) 1,157 3.5 -16.1°
